FW7500 Weather Reports


time (UTC)temp
C
wind
direction
speed
KPH
gust
KPH
rain 1hr
cm
rain 24hr
cm
rain mn
cm
humidity
%
barometer
mb
20260508230054 19 360 6.4 19.3 0.00 0.00 0.00 42 1010.4
20260508224550 19 360 9.7 19.3 0.00 0.00 0.00 43 1010.4
20260508223048 20 360 9.7 22.5 0.00 0.00 0.00 43 1010.3
20260508221550 20 360 9.7 24.1 0.00 0.00 0.00 41 1010.2
20260508220054 20 360 9.7 29.0 0.00 0.00 0.00 41 1010.3
20260508214549 20 360 12.9 24.1 0.00 0.00 0.00 41 1010.6
20260508213049 21 360 11.3 29.0 0.00 0.00 0.00 39 1010.5
20260508211548 21 288 14.5 27.4 0.00 0.00 0.00 38 1010.6
20260508210105 20 360 12.9 27.4 0.00 0.00 0.00 38 1010.6
20260508204544 20 360 11.3 22.5 0.00 0.00 0.00 40 1010.9
20260508203050 20 360 12.9 22.5 0.00 0.00 0.00 41 1011.0
20260508201550 21 360 11.3 22.5 0.00 0.00 0.00 39 1011.4
20260508200058 21 265 14.5 25.7 0.00 0.00 0.00 38 1011.5
20260508194549 21 360 8.0 24.1 0.00 0.00 0.00 43 1011.8
20260508193059 20 360 17.7 29.0 0.00 0.00 0.00 36 1011.5
20260508191545 20 360 16.1 30.6 0.00 0.00 0.00 36 1012.0
20260508184618 20 280 6.4 20.9 0.00 0.00 0.00 40 1012.3
20260508183056 20 360 9.7 27.4 0.00 0.00 0.00 41 1012.8
20260508181601 20 163 11.3 24.1 0.00 0.00 0.00 40 1013.1
20260508180056 20 360 11.3 24.1 0.00 0.00 0.00 42 1013.4
20260508174556 19 261 14.5 29.0 0.00 0.00 0.00 40 1013.5
20260508173057 19 360 17.7 37.0 0.00 0.00 0.00 44 1014.0
20260508171550 18 278 11.3 24.1 0.00 0.00 0.00 43 1014.1
20260508170051 19 360 11.3 20.9 0.00 0.00 0.00 48 1014.5
20260508164601 18 360 12.9 22.5 0.00 0.00 0.00 46 1014.7
20260508163046 18 290 14.5 29.0 0.00 0.00 0.00 44 1015.1
20260508161551 18 360 11.3 29.0 0.00 0.00 0.00 48 1015.1
20260508160051 18 360 12.9 29.0 0.00 0.00 0.00 52 1015.4
20260508154549 17 360 11.3 24.1 0.00 0.00 0.00 48 1015.6
20260508153050 17 360 14.5 25.7 0.00 0.00 0.00 47 1015.7
20260508151559 17 360 11.3 27.4 0.00 0.00 0.00 50 1015.8
20260508144619 16 360 9.7 22.5 0.00 0.00 0.00 48 1016.1
20260508143112 16 360 11.3 20.9 0.00 0.00 0.00 48 1015.9
20260508141602 15 274 9.7 20.9 0.00 0.00 0.00 52 1016.1
20260508140054 15 360 14.5 27.4 0.00 0.00 0.00 53 1016.3
20260508134600 14 360 9.7 22.5 0.00 0.00 0.00 54 1016.3
20260508133115 13 360 12.9 24.1 0.00 0.00 0.00 53 1016.3
20260508131554 13 360 12.9 20.9 0.00 0.00 0.00 54 1016.2
20260508130052 12 360 11.3 20.9 0.00 0.00 0.00 54 1016.2
20260508124550 11 360 12.9 20.9 0.00 0.00 0.00 55 1016.1
20260508123100 11 360 11.3 19.3 0.00 0.00 0.00 59 1016.1
20260508121550 10 360 9.7 14.5 0.00 0.00 0.00 61 1016.1
20260508120053 9 360 9.7 16.1 0.00 0.00 0.00 63 1016.0
20260508114551 8 360 6.4 12.9 0.00 0.00 0.00 66 1015.9
20260508113108 7 360 6.4 9.7 0.00 0.00 0.00 67 1015.7
20260508111551 7 360 4.8 8.0 0.00 0.00 0.00 70 1015.6
20260508110055 6 360 3.2 6.4 0.00 0.00 0.00 69 1015.5
20260508104543 7 360 6.4 12.9 0.00 0.00 0.00 68 1015.4
20260508103059 7 217 4.8 11.3 0.00 0.00 0.00 66 1015.5
20260508101600 7 360 4.8 9.7 0.00 0.00 0.00 66 1015.3
20260508100053 7 360 4.8 8.0 0.00 0.00 0.00 67 1015.3
20260508094546 7 360 4.8 8.0 0.00 0.00 0.00 68 1015.3
20260508093049 7 360 4.8 8.0 0.00 0.00 0.00 66 1015.2
20260508091558 7 360 3.2 8.0 0.00 0.00 0.00 65 1015.2
20260508090108 7 360 4.8 6.4 0.00 0.00 0.00 64 1015.1
20260508084553 7 360 3.2 9.7 0.00 0.00 0.00 64 1015.1
20260508083050 7 360 4.8 8.0 0.00 0.00 0.00 65 1015.2
20260508081549 7 360 3.2 4.8 0.00 0.00 0.00 66 1015.0
20260508080048 7 360 4.8 8.0 0.00 0.00 0.00 67 1014.9
20260508074548 7 360 4.8 11.3 0.00 0.00 0.00 66 1015.0
20260508073051 7 360 6.4 9.7 0.00 0.00 0.00 64 1015.0
20260508071600 7 360 3.2 8.0 0.00 0.00 0.00 63 1015.2
20260508070056 8 360 3.2 6.4 0.00 0.00 0.00 62 1015.5
20260508064549 8 360 4.8 8.0 0.00 0.00 0.00 61 1015.6
20260508063049 8 360 4.8 9.7 0.00 0.00 0.00 61 1015.8
20260508061550 8 360 3.2 8.0 0.00 0.00 0.00 61 1015.8
20260508060053 8 360 4.8 9.7 0.00 0.00 0.00 60 1015.9
20260508054548 8 360 6.4 9.7 0.00 0.00 0.00 62 1015.9
20260508053113 7 261 4.8 6.4 0.00 0.00 0.00 64 1015.9
20260508051549 8 360 3.2 4.8 0.00 0.00 0.00 63 1015.8
20260508050049 8 360 1.6 6.4 0.00 0.00 0.00 63 1015.8
20260508044554 8 360 4.8 8.0 0.00 0.00 0.00 63 1015.8
20260508043048 8 360 3.2 4.8 0.00 0.00 0.00 63 1015.8
20260508041611 8 360 1.6 3.2 0.00 0.00 0.00 63 1015.9
20260508040104 8 360 1.6 4.8 0.00 0.00 0.00 64 1015.8
20260508034549 7 360 1.6 3.2 0.00 0.00 0.00 66 1015.8
20260508033050 7 360 3.2 4.8 0.00 0.00 0.00 69 1015.9
20260508031549 7 360 1.6 3.2 0.00 0.00 0.00 72 1015.9
20260508030047 7 0 0.0 0.0 0.00 0.00 0.00 73 1016.0
20260508024603 7 0 0.0 0.0 0.00 0.00 0.00 72 1015.9
20260508023051 7 0 0.0 0.0 0.00 0.00 0.00 71 1015.8
20260508021547 7 0 0.0 0.0 0.00 0.00 0.00 70 1015.8
20260508020049 8 0 0.0 0.0 0.00 0.00 0.00 67 1015.9
20260508014547 8 0 0.0 0.0 0.00 0.00 0.00 63 1015.7
20260508013051 9 0 0.0 0.0 0.00 0.00 0.00 60 1015.5
20260508011555 10 0 0.0 0.0 0.00 0.00 0.00 55 1015.5
20260508010056 11 0 0.0 0.0 0.00 0.00 0.00 49 1015.4
20260508004555 12 0 0.0 0.0 0.00 0.00 0.00 47 1015.3
20260508003105 13 0 0.0 0.0 0.00 0.00 0.00 44 1015.2
20260508001552 13 0 1.6 4.8 0.00 0.00 0.00 44 1015.0
20260508000048 14 304 1.6 6.4 0.00 0.00 0.00 43 1015.0
20260507234545 14 307 4.8 9.7 0.00 0.00 0.00 40 1014.9
20260507233059 15 288 4.8 11.3 0.00 0.00 0.00 40 1014.8
20260507231547 15 360 3.2 9.7 0.00 0.00 0.00 40 1014.8